www.pogodaiklimat.ru

Погода и климат >> Архив погоды >> Россия >> Дагестан >> Дербент


ПОГОДА в Дербенте

АРХИВ ПОГОДЫ в Дербенте

Время (UTC), дата Ветер
(напр.,м/с)
 
Видим.   Явления Облачность Т
(С)
Тd
(С)
f
(%)
Тe
(С)
Тes
(С)
Комфортность P
(гПа)
Po
(гПа)
Тmin
(С)
Tmax
(С)
R
(мм)
S
(см)
09 16.03 С 2 20 км 9/9 600 м
[Sc]
+8.3 +5.0 80 +6 +8 по сезону 1013.7 1015.9
12 16.03 СЗ 3 20 км 9/9 600 м
[Sc]
+11.0 +4.9 66 +9 +10 тепло 1012.5 1014.7
15 16.03 С 2 20 км 10/10 600 м
[Sc]
+9.7 +4.8 71 +8 +8 тепло 1012.5 1014.7 +11.1
18 16.03 Ю 1 4000 м слабый ливневой дождь 10/10 300 м
[Cb cap]
+8.9 +5.2 78 +8 +8 тепло 1013.1 1015.3
21 16.03 СЗ 2 10 км {ливн. осадки} 10/10 300 м
[Cb cap]
+8.7 +6.3 85 +7 +7 тепло 1013.1 1015.3
00 17.03 СЗ 3 10 км {ливн. осадки} 10/10 300 м
[Cb cap]
+8.4 +4.4 76 +6 +6 тепло 1013.3 1015.5
03 17.03 СЗ 1 10 км 10/10 600 м
[Sc]
+9.0 +3.1 67 +9 +9 тепло 1014.6 1016.8 +6.9 0.6
06 17.03 В 2 20 км 8/8 600 м
[Sc]
+12.0 +4.2 59 +11 +13 тепло 1015.5 1017.7
09 17.03 С 2 20 км 8/4 600 м
[Sc Ac trans]
+11.2 +5.3 67 +10 +14 тепло 1015.8 1018.0
12 17.03 С 3 20 км 8/6 600 м
[Sc Ac trans]
+10.9 +4.8 66 +9 +10 тепло 1016.1 1018.3
15 17.03 ЮВ 1 10 км 5/4 600 м
[Sc Ac trans]
+8.9 +4.2 72 +8 +8 тепло 1016.8 1019.0 +13.6
18 17.03 штиль 0 10 км 8/0
[Ac trans]
+7.2 +4.4 82 +6 +6 по сезону 1016.6 1018.9
21 17.03 Ю 2 10 км 8/0
[Ac trans]
+6.9 +3.3 78 +5 +5 по сезону 1015.7 1017.9
00 18.03 Ю 1 10 км 6/0
[Ac trans]
+5.5 +3.1 85 +4 +4 по сезону 1014.8 1017.1
03 18.03 ЮВ 1 10 км 8/0
[Ac trans Ci fib]
+4.9 +3.0 87 +4 +4 по сезону 1014.5 1016.7 +4.6
06 18.03 ЮВ 3 20 км ясно +7.6 +4.0 78 +5 +11 по сезону 1014.4 1016.6 +4.6
09 18.03 В 2 20 км 8/0
[Ci fib]
+9.7 +6.0 78 +8 +18 опасность
простуды
1012.1 1014.3
12 18.03 ЮВ 1 4000 м дымка 10/10 600 м
[Sc]
+7.0 +5.3 89 +6 +6 по сезону 1009.6 1011.8
15 18.03 С 4 10 км 10/10 600 м
[Sc]
+7.5 +5.4 87 +4 +4 по сезону 1008.8 1011.0 +10.1
18 18.03 СЗ 4 10 км 9/6 600 м
[Sc Ac trans]
+8.0 +5.1 82 +5 +5 по сезону 1008.1 1010.3
21 18.03 СЗ 4
{10}
10 км 10/10 300 м
[Cb cap]
+8.3 +5.3 81 +5 +5 по сезону 1007.9 1010.1
00 19.03 СЗ 5-13
{15}
10 км 10/10 300 м
[Cb cap]
+8.0 +5.6 85 +4 +4 по сезону 1008.6 1010.8
03 19.03 СЗ 6-13
{13}
10 км 10/10 600 м
[Sc]
+7.7 +5.3 85 +3 +3 по сезону 1011.4 1013.6 +7.4
06 19.03 С 5
{13}
20 км 3/3 600 м
[Cu hum]
+11.2 +5.7 69 +9 +11 тепло 1012.5 1014.7
09 19.03 С 4
{12}
20 км 8/8 600 м
[Cu Sc]
+10.1 +5.6 74 +8 +9 по сезону 1013.4 1015.6
12 19.03 С 4 20 км 9/8 600 м
[Sc Ac trans Ci fib]
+10.7 +5.4 70 +8 +9 по сезону 1012.0 1014.2
15 19.03 С 2 10 км 8/8 600 м
[Sc]
+8.1 +4.8 80 +6 +6 по сезону 1011.8 1014.0 +11.8
18 19.03 штиль 0 500 м туман ?/? +4.3 +3.4 94 +3 +3 по сезону 1011.4 1013.7
21 19.03 ЮВ 1 500 м туман ?/? +4.3 +3.5 95 +3 +3 по сезону 1009.1 1011.4
00 20.03 Ю 2 500 м туман ?/? +4.0 +3.3 95 +1 +1 по сезону 1006.9 1009.2
03 20.03 Ю 2 500 м туман ?/? +4.3 +3.5 95 +1 +1 по сезону 1005.8 1008.0 +3.9
06 20.03 Ю 1 500 м туман ?/? +5.0 +4.1 94 +4 +4 по сезону 1004.9 1007.1
09 20.03 ЮВ 3 500 м туман ?/? +6.1 +4.5 89 +3 +3 по сезону 1003.2 1005.4
12 20.03 В 1 4000 м дымка {туман} 10/10 300 м
[St]
+6.6 +4.6 87 +6 +6 по сезону 1002.4 1004.6
15 20.03 С 4 10 км 10/10 300 м
[St]
+7.2 +4.6 84 +4 +4 по сезону 1004.3 1006.5 +7.4
18 20.03 СЗ 3 10 км 10/10 600 м
[Sc]
+7.1 +5.2 88 +4 +4 по сезону 1006.7 1008.9
21 20.03 СЗ 3 10 км 10/10 600 м
[Sc]
+6.9 +4.9 87 +4 +4 по сезону 1007.5 1009.7
00 21.03 СЗ 2 10 км 10/10 600 м
[Sc]
+7.2 +4.7 84 +5 +5 по сезону 1007.6 1009.8
03 21.03 СЗ 3 10 км 8/4 600 м
[Sc Ac trans]
+6.8 +0.6 65 +4 +4 по сезону 1008.1 1010.3 +6.7
06 21.03 С 5 20 км 8/4 600 м
[Sc Ac trans]
+11.1 +1.2 50 +9 +10 тепло 1009.3 1011.5
09 21.03 С 5-11
{14}
20 км 9/8 600 м
[Sc Ac trans]
+11.0 +1.0 50 +9 +10 тепло 1009.8 1012.0
12 21.03 С 4
{12}
20 км 9/9 600 м
[Sc]
+9.8 +1.8 57 +7 +8 по сезону 1010.7 1012.9
15 21.03 СВ 1 10 км 10/10 600 м
[Sc]
+9.4 +0.6 54 +9 +9 тепло 1013.1 1015.3 +11.9
18 21.03 Ю 1 10 км 10/10 600 м
[Sc]
+9.0 +1.0 57 +9 +9 тепло 1013.8 1016.0
21 21.03 ЮЗ 2 10 км 10/10 600 м
[Sc]
+10.0 -0.3 49 +9 +9 тепло 1013.8 1016.0
00 22.03 10 км н/о +7.0 +1.8 69 +6 +6 по сезону 1014.3 1016.6
03 22.03 В 1 10 км 3/3 600 м
[Sc]
+5.0 +2.1 81 +4 +4 по сезону 1015.8 1018.1 +4.5
06 22.03 ЮВ 1 20 км 8/5 600 м
[Sc Ac trans]
+9.1 +1.3 58 +9 +12 тепло 1017.1 1019.3
09 22.03 ЮВ 2 20 км 4/0
[Ac trans]
+10.2 +4.5 68 +9 +19 опасность
простуды
1016.4 1018.6
12 22.03 В 3 20 км 10/10 300 м
[Cb cap]
+7.8 +3.8 76 +5 +5 по сезону 1015.6 1017.8
15 22.03 СЗ 3 10 км 9/9 300 м
[Cb cap]
+7.9 +3.8 75 +5 +5 по сезону 1016.7 1018.9 +10.5
18 22.03 СЗ 4
{11}
10 км 10/10 300 м
[Cb cap]
+6.7 +3.8 82 +3 +3 по сезону 1019.5 1021.7
21 22.03 З 2 10 км 5/3
[Sc Ac trans]
+6.7 +2.9 77 +5 +5 по сезону 1019.9 1022.1
00 23.03 ЮВ 1 10 км 8/0
[Ac trans]
+6.2 +2.0 74 +5 +5 по сезону 1019.4 1021.6
03 23.03 Ю 1 10 км 4/0
[Ac trans]
+5.6 +2.4 80 +5 +5 по сезону 1020.6 1022.8 +5.6
06 23.03 ЮВ 2 20 км 8/4 600 м
[Sc Ac trans Ci fib]
+8.0 +3.8 75 +6 +9 по сезону 1020.8 1023.0 +5.5

 

Местоположение метеостанции Дербент (Дагестан, Россия): широта 42.07 долгота 48.30 высота над уровнем моря -17 м.

В архиве по умолчанию представлена погода в Дербенте за последнюю неделю. Архивные данные за месяц целиком и за предыдущие месяцы, начиная с января 2011 года, Вы можете получить, выбрав интересующий диапазон дат из раскрывающегося списка и нажав кнопку "Ввод!".

Внимание! Время в таблицах - всемирное. Для получения местного времени необходимо прибавить поправку, которая в Дербенте равна 3 ч.

Смотрите также архив погоды в соседних городах и на ближайших метеорологических станциях:

Погода в Касумкенте (Дагестан, Россия) (46 км)
Погода в Изберге (Дагестан, Россия) (60 км)
Погода в Сергокале (Дагестан, Россия) (67 км)
Погода в Губе (Азербайджан) (80 км)
Погода в Ахты (Дагестан, Россия) (81 км)
Погода в Кумухе (Дагестан, Россия) (98 км)
Погода в Куппе (Дагестан, Россия) (107 км)
Погода в Гунибе (Дагестан, Россия) (116 км)
Погода в Махачкале (Дагестан, Россия) (125 км)
Погода в Габале (Азербайджан) (126 км)

Пояснения к столбцам:

Ветер - указаны скорость ветра в м/с - средняя за 10 мин, порывы в срок и между сроками (в фигурных скобках) и направление, откуда дует ветер: С - северный, СВ - северо-восточный, В - восточный, ЮВ - юго-восточный, Ю - южный, ЮЗ - юго-западный, З - западный, СЗ - северо-западный.
Видимость - горизонтальная дальность видимости в метрах или километрах. При видимости от 1 до 10 км при отсутствии осадков обычно наблюдается дымка, при ухудшении видимости до 1 км и менее - туман. В сухую погоду видимость может ухудшаться дымом, пылью или мглою.
Явления - указаны атмосферные явления, наблюдавшиеся в срок или в последний час перед сроком; фигурными скобками обозначены явления, наблюдавшиеся между сроками (за 1-3 часа до срока); квадратными скобками обозначены град или гололедные отложения с указанием их диаметра в мм.
Облачность - указаны через наклонную черту общая и нижняя облачность в баллах и высота нижней границы облаков в метрах; квадратными скобками обозначены формы облаков: Ci - перистые, Cs - перисто-слоистые, Cc - перисто-кучевые, Ac - высококучевые, As - высокослоистые, Sc - слоисто-кучевые, Ns - слоисто-дождевые, Cu - кучевые, Cb - кучево-дождевые. Подробнее классификацию облаков см. в Атласе облаков (PDF).
T - Температура воздуха - температура, измеренная на высоте 2 м над землей.
Td - Температура точки росы - температура, при понижении до которой содержащийся в воздухе водяной пар достигнет насыщения.
f - Относительная влажность воздуха - влажноcть воздуха, измеренная на высоте 2 м над землей.
Te - Эффективная температура - температура, которую ощущает одетый по сезону человек в тени. Характеристика душности погоды. При расчете учитывается влияние влажности воздуха и скорости ветра на теплоощущения человека.
Tes - Эффективная температура на солнце - температура, которую ощущает человек, с поправкой на солнечный нагрев. Характеристика знойности погоды. Зависит от высоты солнца над горизонтом, облачности и скорости ветра. Ночью, в пасмурную погоду, а также при ветре 12 м/с и более поправка равна нулю.
P - Атмосферное давление - приведенное к уровню моря атмосферное давление.
Po - Атмосферное давление - измеренное на уровне метеостанции атмосферное давление.
Tmin - Минимальная температура - минимум температуры воздуха на высоте 2 м над землей.
Tmax - Максимальная температура - максимум температуры воздуха на высоте 2 м над землей.
R - Количество осадков - Количество выпавших осадков, мм. При наведении курсора мыши на число - период времени, за который выпало указанное количество осадков.
S - Снежный покров - Высота снежного покрова, см. При наведении курсора мыши на число - состояние снежного покрова и степень покрытия местности в баллах.